COSMOS 1275 DEB, 12694

Orbit data source: Space-Track

COSMOS 1275 DEB, 12694 is space debris in LEO originally from a launch on Thu, 04 Jun 1981 UTC launched from the Plesetsk Missile And Space Complex (PKMTR). Debris objects in space refer to the collection of defunct objects orbiting the Earth. Examples of debris include non-operational satellites, rocket bodies, and fragments generated from explosions, collisions, or faulty payload assembly.

Loading next visibility...
Identifier
12694, 1981-053AN
Orbit
LEO
Country
Flag of CISCIS
Related business
Manufacturer
Unknown
Mission
Spacecraft
Bus & Motor
Unknown
Mass
Unknown
Launch date (UTC)
1981-06-04 (44 years ago)
Launch vehicle
Unknown
Launch site
Plesetsk Missile And Space Complex (PKMTR)
Object type
Payload
Rocket body
Debris
Shape & HBR
Unknown shape, 0.2 m
Radar Cross Section
Small (<0.1 m²)

Expand to show TLE details & history
Last TLE update: 7 hours ago

TLE from 7 hours ago
0 COSMOS 1275 DEB
1 12694U 81053AN  25299.93098083  .00000511  00000-0  61437-3 0  9997
2 12694  83.0786 265.6431 0114371 162.1064 254.2331 13.62183266191212
Epoch: 2025-10-26T22:20Z
TLE epoch observation values (Epoch: 2025-10-26T22:20:36.743Z)
Latitude
54.58547°
Longitude
-95.27124°
Altitude
1,060.686 km
Speed
7.315 km/s
True Right ascension
18h 21m 41s
True Declination
54° 25' 46"
Sunlit
Object was in daylight at epoch
Visualization orbit readout
Latitude
Unknown
Longitude
Unknown
Altitude
Unknown
Speed
Unknown
Apparent Right ascension
Unknown
Apparent Declination
Unknown
Sunlit
N/A
Visualization observer readout
Local Sidereal Time
00:52:59
Azimuth
Unknown
Elevation
Unknown
Doppler factor
Unknown
Orbital elements
Apogee altitude
1,109.599 km
Perigee altitude
940.26 km
Semi-major axis
7,403.066 km
Eccentricity
0.01144
Inclination
83.0786°
RAAN
265.6431°
Arg. of periapsis
162.1064°
True anomaly
252.9768°
Mean anomaly
254.2331°
Eccentric anomaly
253.60445°
Mean motion
3.40742 °/min
Orbital period
105.65 mins
BSTAR
0.00061437
Loading maneuver chart data...
Computing Atmospheric mass density...

Documentation

Showing up to 5 results
|